Weather History for Palermo, Italy

Change the Weather History Date:

Monday, March 18, 2013

  Actual Average Record
Temperature  
Mean Temperature 68 °F -  
Max Temperature 75 °F 63 °F 75 °F (2013)
Min Temperature 60 °F 54 °F 46 °F (1997)
Cooling Degree Days 2    
Growing Degree Days 18 (Base 50)    
Moisture  
Dew Point 41 °F    
Average Humidity 41    
Maximum Humidity 63    
Minimum Humidity 21    
Precipitation  
Precipitation 0.00 in 0.07 in - ()
Sea Level Pressure  
Sea Level Pressure 29.70 in    
Wind  
Wind Speed 29 mph ()    
Max Wind Speed 44 mph    
Max Gust Speed 61 mph    
Visibility 6.2 miles    
Events Rain    
Averages and records for this station are not official NWS values.
T = Trace of Precipitation, MM = Missing Value Source: Averaged Metar Reports

Daily Weather History Graph

Daily Weather History Graph

Search for Another Location

Airport:

Trip Planner

Search our weather history database for the weather conditions in past years. The results will help you decide how hot, cold, wet, or windy it might be!

Date:

Astronomy

Mar. 18, 2013 Rise Set
Actual Time 6:14 AM CET 6:17 PM CET
Civil Twilight 5:47 AM CET 6:43 PM CET
Nautical Twilight 5:17 AM CET 7:14 PM CET
Astronomical Twilight 4:46 AM CET 7:45 PM CET
Moon 10:05 AM CET (3/18) No Moon Set
Length of Visible Light 12h 56m
Length of Day
12h 03m
Waxing Crescent, 38% of the Moon is Illuminated
Mar 18
Waxing Crescent
Mar 19
First Quarter
Mar 27
Full
Apr 3
Last Quarter
Apr 10
New

Hourly Weather History & Observations

Time (CET) Temp. Dew Point Humidity Pressure Visibility Wind Dir Wind Speed Gust Speed Precip Events Conditions
12:20 AM 66.2 °F 24.8 °F 21% 29.77 in 6.2 mi South 32.2 mph 55.2 mph N/A   Mostly Cloudy
12:50 AM 66.2 °F 28.4 °F 24% 29.77 in 6.2 mi South 36.8 mph 57.5 mph N/A   Mostly Cloudy
1:20 AM 64.4 °F 32.0 °F 30% 29.74 in 6.2 mi SSE 39.1 mph 52.9 mph N/A   Mostly Cloudy
1:50 AM 66.2 °F 37.4 °F 35% 29.68 in 6.2 mi South 35.7 mph 49.5 mph N/A   Mostly Cloudy
2:20 AM 64.4 °F 37.4 °F 37% 29.71 in 6.2 mi South 41.4 mph 55.2 mph N/A   Mostly Cloudy
2:50 AM 64.4 °F 35.6 °F 34% 29.71 in 6.2 mi South 43.7 mph 58.7 mph N/A   Mostly Cloudy
3:20 AM 64.4 °F 35.6 °F 34% 29.68 in 6.2 mi South 38.0 mph 52.9 mph N/A   Mostly Cloudy
3:50 AM 66.2 °F 30.2 °F 26% 29.68 in 6.2 mi South 40.3 mph 57.5 mph N/A   Mostly Cloudy
4:20 AM 68.0 °F 28.4 °F 23% 29.68 in 6.2 mi South 42.6 mph 58.7 mph N/A   Mostly Cloudy
4:50 AM 66.2 °F 32.0 °F 28% 29.68 in 6.2 mi South 36.8 mph 61.0 mph N/A   Mostly Cloudy
5:20 AM 66.2 °F 32.0 °F 28% 29.68 in 6.2 mi South 39.1 mph 58.7 mph N/A   Mostly Cloudy
5:50 AM 66.2 °F 35.6 °F 32% 29.71 in 6.2 mi South 33.4 mph 50.6 mph N/A   Mostly Cloudy
6:20 AM 68.0 °F 35.6 °F 30% 29.68 in 6.2 mi South 32.2 mph 54.1 mph N/A   Mostly Cloudy
6:50 AM 66.2 °F 39.2 °F 37% 29.65 in 6.2 mi South 36.8 mph 56.4 mph N/A Rain Light Rain
7:20 AM 66.2 °F 35.6 °F 32% 29.68 in 6.2 mi South 38.0 mph 57.5 mph N/A   Partly Cloudy
7:50 AM 68.0 °F 35.6 °F 30% 29.65 in 6.2 mi South 38.0 mph 55.2 mph N/A   Partly Cloudy
8:20 AM 68.0 °F 33.8 °F 28% 29.65 in 6.2 mi South 38.0 mph 51.8 mph N/A   Scattered Clouds
8:50 AM 68.0 °F 37.4 °F 33% 29.65 in 6.2 mi South 34.5 mph 46.0 mph N/A   Scattered Clouds
9:20 AM 69.8 °F 33.8 °F 27% 29.65 in 6.2 mi South 34.5 mph 46.0 mph N/A   Partly Cloudy
9:50 AM 71.6 °F 33.8 °F 25% 29.65 in - South 33.4 mph 44.9 mph N/A   Clear
10:20 AM 73.4 °F 32.0 °F 22% 29.65 in - South 28.8 mph 43.7 mph N/A   Clear
10:50 AM 75.2 °F 32.0 °F 21% 29.65 in - South 24.2 mph 35.7 mph N/A   Clear
11:20 AM 73.4 °F 37.4 °F 27% 29.65 in - SSW 23.0 mph - N/A   Clear
11:50 AM 71.6 °F 44.6 °F 38% 29.65 in - SSW 29.9 mph - N/A   Clear
12:20 PM 71.6 °F 42.8 °F 35% 29.65 in - SSW 27.6 mph 42.6 mph N/A   Clear
12:50 PM 71.6 °F 39.2 °F 31% 29.65 in - South 31.1 mph 46.0 mph N/A   Clear
1:20 PM 69.8 °F 44.6 °F 40% 29.65 in - SSW 31.1 mph - N/A   Clear
1:50 PM 68.0 °F 44.6 °F 43% 29.65 in - SSW 28.8 mph - N/A   Clear
2:20 PM 68.0 °F 42.8 °F 40% 29.68 in - SSW 27.6 mph - N/A   Clear
2:50 PM 68.0 °F 44.6 °F 43% 29.68 in - SSW 26.5 mph - N/A   Clear
3:20 PM 68.0 °F 46.4 °F 46% 29.68 in - SSW 20.7 mph - N/A   Clear
3:50 PM 68.0 °F 48.2 °F 49% 29.68 in - SSW 24.2 mph - N/A   Clear
4:20 PM 68.0 °F 46.4 °F 46% 29.68 in - SSW 23.0 mph - N/A   Clear
4:50 PM 68.0 °F 48.2 °F 49% 29.68 in 6.2 mi SSW 20.7 mph - N/A   Partly Cloudy
5:20 PM 68.0 °F 48.2 °F 49% 29.68 in 6.2 mi South 18.4 mph - N/A   Partly Cloudy
5:50 PM 66.2 °F 50.0 °F 56% 29.71 in 6.2 mi SSW 18.4 mph - N/A   Partly Cloudy
6:20 PM 66.2 °F 50.0 °F 56% 29.71 in 6.2 mi SSW 18.4 mph - N/A   Partly Cloudy
6:50 PM 64.4 °F 50.0 °F 59% 29.71 in - South 19.6 mph - N/A   Clear
7:20 PM 64.4 °F 50.0 °F 59% 29.74 in - SSW 21.9 mph - N/A   Clear
7:50 PM 64.4 °F 50.0 °F 59% 29.74 in - SSW 21.9 mph - N/A   Clear
8:20 PM 62.6 °F 50.0 °F 63% 29.74 in 6.2 mi SSW 21.9 mph - N/A   Partly Cloudy
8:50 PM 62.6 °F 50.0 °F 63% 29.74 in - SSW 23.0 mph - N/A   Clear
9:20 PM 62.6 °F 50.0 °F 63% 29.77 in - SSW 19.6 mph - N/A   Clear
9:50 PM 60.8 °F 48.2 °F 63% 29.77 in - SSW 19.6 mph - N/A   Clear
10:20 PM 60.8 °F 48.2 °F 63% 29.77 in - SW 16.1 mph - N/A   Clear
10:50 PM 60.8 °F 46.4 °F 59% 29.77 in - SSW 17.3 mph 28.8 mph N/A   Clear
11:20 PM 60.8 °F 48.2 °F 63% 29.80 in - WSW 16.1 mph - N/A   Clear
11:50 PM 60.8 °F 44.6 °F 55% 29.80 in - West 17.3 mph - N/A   Clear